Вернуться в каталог

FENGYUN 1C DEB

АктивенSSO
NORAD 32153·DEBRIS·🇨🇳 China

Запущен May 10, 1999 с Taiyuan Satellite Launch Center

Loading…

Ближайшие Пролёты (ближайшие 24 часа)

TLE

СвежийSource: Space-Track

Эпоха: Sep 14, 2026, 10:31 UTC

1 32153U 99025CSX 26257.43850680  .00000545  00000-0  12011-3 0  9997
2 32153  98.7415 115.9673 0207518 109.0829 253.2962 14.49240809 12120

Отслеживайте FENGYUN 1C DEB в реальном времени с AllMySat

Download on the App Store